When you browse on this site, cookies collect data to enhance your experience and personalize the content and advertising you see.
Visit our Privacy Policy to learn more. By continuing to use the site, you agree to this use of cookies and data.
  • In Austria
  • List of Countries
  • For 7 days
  • Water Temperature
  • Weather Map
  • News
  • Weather Widgets
  • user-avatar
    Login

    Hourly Weather Santa Ana Hueytlalpan

    Today, 15 November, Friday

    Time Temperature Precipitation Wind Pressure Humidity
    00:00 +11°C° 0.4 mm 1 mps 591 mmHg 97%
    01:00 +11°C° 0.4 mm 1 mps 591 mmHg 97%
    02:00 +11°C° 0.4 mm 1 mps 591 mmHg 97%
    03:00 +11°C° 0.2 mm 1 mps 591 mmHg 97%
    04:00 +9°C° 0.2 mm 2 mps 591 mmHg 97%
    05:00 +9°C° 0.2 mm 2 mps 591 mmHg 97%
    06:00 +9°C° 0.1 mm 2 mps 591 mmHg 97%
    07:00 +10°C° 0.1 mm 1 mps 591 mmHg 96%
    08:00 +9°C° 0.1 mm 1 mps 592 mmHg 96%
    09:00 +10°C° 0 mm 1 mps 592 mmHg 94%
    10:00 +9°C° 0 mm 2 mps 592 mmHg 92%
    11:00 +10°C° 0 mm 2 mps 592 mmHg 90%
    12:00 +9°C° 0 mm 2 mps 591 mmHg 90%
    13:00 +9°C° 0 mm 2 mps 590 mmHg 90%
    14:00 +9°C° 0 mm 2 mps 589 mmHg 90%
    15:00 +9°C° 0 mm 2 mps 589 mmHg 92%
    16:00 +8°C° 0 mm 2 mps 589 mmHg 94%
    17:00 +9°C° 0 mm 1 mps 589 mmHg 95%
    18:00 +9°C° 0 mm 1 mps 590 mmHg 95%
    19:00 +9°C° 0 mm 1 mps 590 mmHg 95%
    20:00 +9°C° 0 mm 1 mps 591 mmHg 95%
    21:00 +9°C° 0 mm 1 mps 590 mmHg 95%
    22:00 +9°C° 0 mm 1 mps 590 mmHg 95%
    23:00 +9°C° 0 mm 1 mps 590 mmHg 94%

    Tomorrow, 16 November, Saturday

    Time Temperature Precipitation Wind Pressure Humidity
    00:00 +9°C° 0 mm 1 mps 590 mmHg 94%
    01:00 +9°C° 0 mm 1 mps 589 mmHg 94%
    02:00 +8°C° 0 mm 0 mps 589 mmHg 94%
    03:00 +8°C° 0 mm 0 mps 589 mmHg 94%
    04:00 +7°C° 0 mm 0 mps 589 mmHg 93%
    05:00 +7°C° 0 mm 0 mps 588 mmHg 93%
    06:00 +9°C° 0 mm 0 mps 589 mmHg 88%
    07:00 +10°C° 0 mm 0 mps 590 mmHg 83%
    08:00 +13°C° 0 mm 1 mps 591 mmHg 78%
    09:00 +14°C° 0 mm 1 mps 592 mmHg 74%
    10:00 +15°C° 0 mm 2 mps 592 mmHg 71%
    11:00 +16°C° 0 mm 2 mps 592 mmHg 67%
    12:00 +16°C° 0.1 mm 2 mps 591 mmHg 71%
    13:00 +15°C° 0.1 mm 2 mps 590 mmHg 75%
    14:00 +15°C° 0.1 mm 2 mps 589 mmHg 79%
    15:00 +13°C° 0.1 mm 2 mps 589 mmHg 85%
    16:00 +12°C° 0.1 mm 1 mps 588 mmHg 90%
    17:00 +11°C° 0.1 mm 1 mps 588 mmHg 95%
    18:00 +11°C° 0 mm 1 mps 588 mmHg 95%
    19:00 +11°C° 0 mm 1 mps 588 mmHg 95%
    20:00 +11°C° 0 mm 1 mps 589 mmHg 94%
    21:00 +11°C° 0 mm 1 mps 588 mmHg 94%
    22:00 +10°C° 0 mm 1 mps 588 mmHg 94%
    23:00 +10°C° 0 mm 1 mps 588 mmHg 94%

    Day after tomorrow, 17 November, Sunday

    Time Temperature Precipitation Wind Pressure Humidity
    00:00 +10°C° 0 mm 1 mps 587 mmHg 93%
    01:00 +10°C° 0 mm 1 mps 587 mmHg 93%
    02:00 +10°C° 0 mm 1 mps 587 mmHg 92%
    03:00 +10°C° 0 mm 1 mps 587 mmHg 91%
    04:00 +10°C° 0 mm 1 mps 587 mmHg 91%
    05:00 +10°C° 0 mm 1 mps 587 mmHg 90%
    06:00 +12°C° 0 mm 1 mps 588 mmHg 84%
    07:00 +14°C° 0 mm 1 mps 589 mmHg 77%
    08:00 +16°C° 0 mm 1 mps 590 mmHg 70%
    09:00 +18°C° 0 mm 1 mps 590 mmHg 68%
    10:00 +18°C° 0 mm 2 mps 590 mmHg 65%
    11:00 +19°C° 0 mm 2 mps 591 mmHg 62%
    12:00 +19°C° 0.3 mm 2 mps 590 mmHg 65%
    13:00 +18°C° 0.3 mm 2 mps 589 mmHg 69%
    14:00 +18°C° 0.3 mm 2 mps 588 mmHg 72%
    15:00 +16°C° 0.2 mm 2 mps 588 mmHg 80%
    16:00 +15°C° 0.2 mm 1 mps 587 mmHg 87%
    17:00 +13°C° 0.2 mm 1 mps 587 mmHg 95%
    18:00 +13°C° 0 mm 1 mps 587 mmHg 92%
    19:00 +13°C° 0 mm 1 mps 588 mmHg 90%
    20:00 +12°C° 0 mm 0 mps 588 mmHg 87%
    21:00 +12°C° 0 mm 0 mps 588 mmHg 84%
    22:00 +12°C° 0 mm 0 mps 588 mmHg 81%
    23:00 +12°C° 0 mm 0 mps 588 mmHg 78%

    18 November, Monday

    Time Temperature Precipitation Wind Pressure Humidity
    00:00 +12°C° 0 mm 0 mps 588 mmHg 78%
    01:00 +12°C° 0 mm 0 mps 588 mmHg 77%
    02:00 +12°C° 0 mm 0 mps 587 mmHg 76%
    03:00 +11°C° 0 mm 0 mps 587 mmHg 76%
    04:00 +11°C° 0 mm 0 mps 587 mmHg 76%
    05:00 +11°C° 0 mm 0 mps 587 mmHg 77%
    06:00 +12°C° 0 mm 0 mps 588 mmHg 72%
    07:00 +14°C° 0 mm 0 mps 589 mmHg 67%
    08:00 +16°C° 0 mm 0 mps 590 mmHg 62%
    09:00 +19°C° 0 mm 1 mps 590 mmHg 61%
    10:00 +19°C° 0 mm 1 mps 590 mmHg 60%
    11:00 +19°C° 0 mm 2 mps 590 mmHg 58%
    12:00 +19°C° 0.1 mm 2 mps 589 mmHg 65%
    13:00 +18°C° 0.1 mm 2 mps 588 mmHg 72%
    14:00 +17°C° 0.1 mm 2 mps 587 mmHg 79%
    15:00 +16°C° 0.1 mm 2 mps 587 mmHg 85%
    16:00 +15°C° 0.1 mm 2 mps 587 mmHg 90%
    17:00 +14°C° 0.1 mm 1 mps 587 mmHg 96%
    18:00 +14°C° 0 mm 1 mps 587 mmHg 95%
    19:00 +13°C° 0 mm 1 mps 587 mmHg 95%
    20:00 +13°C° 0 mm 1 mps 588 mmHg 95%
    21:00 +13°C° 0 mm 1 mps 588 mmHg 94%
    22:00 +13°C° 0 mm 1 mps 588 mmHg 92%
    23:00 +11°C° 0 mm 0 mps 587 mmHg 91%

    19 November, Tuesday

    Time Temperature Precipitation Wind Pressure Humidity
    00:00 +11°C° 0 mm 0 mps 587 mmHg 90%
    01:00 +11°C° 0 mm 0 mps 587 mmHg 89%
    02:00 +11°C° 0 mm 0 mps 587 mmHg 88%
    03:00 +11°C° 0 mm 0 mps 587 mmHg 88%
    04:00 +11°C° 0 mm 0 mps 587 mmHg 88%
    05:00 +10°C° 0 mm 0 mps 587 mmHg 88%
    06:00 +11°C° 0 mm 0 mps 588 mmHg 86%
    07:00 +12°C° 0 mm 0 mps 589 mmHg 84%
    08:00 +14°C° 0 mm 1 mps 589 mmHg 81%
    09:00 +15°C° 0 mm 1 mps 590 mmHg 77%
    10:00 +18°C° 0 mm 1 mps 590 mmHg 73%
    11:00 +18°C° 0 mm 2 mps 590 mmHg 68%
    12:00 +17°C° 0.1 mm 2 mps 589 mmHg 73%
    13:00 +17°C° 0.1 mm 2 mps 588 mmHg 77%
    14:00 +16°C° 0.1 mm 2 mps 588 mmHg 81%
    15:00 +15°C° 0.1 mm 2 mps 588 mmHg 86%
    16:00 +15°C° 0.1 mm 1 mps 587 mmHg 90%
    17:00 +14°C° 0.1 mm 1 mps 587 mmHg 94%
    18:00 +13°C° 0 mm 1 mps 588 mmHg 94%
    19:00 +13°C° 0 mm 1 mps 588 mmHg 94%
    20:00 +12°C° 0 mm 0 mps 588 mmHg 94%
    21:00 +12°C° 0 mm 0 mps 588 mmHg 94%
    22:00 +12°C° 0 mm 1 mps 588 mmHg 93%
    23:00 +12°C° 0 mm 1 mps 588 mmHg 92%

    20 November, Wednesday

    Time Temperature Precipitation Wind Pressure Humidity
    00:00 +12°C° 0 mm 1 mps 587 mmHg 92%
    01:00 +12°C° 0 mm 1 mps 587 mmHg 92%
    02:00 +12°C° 0 mm 1 mps 587 mmHg 91%
    03:00 +12°C° 0 mm 1 mps 587 mmHg 91%
    04:00 +12°C° 0 mm 1 mps 587 mmHg 91%
    05:00 +12°C° 0 mm 1 mps 587 mmHg 91%
    06:00 +14°C° 0 mm 1 mps 588 mmHg 84%
    07:00 +15°C° 0 mm 1 mps 589 mmHg 78%
    08:00 +16°C° 0 mm 0 mps 590 mmHg 72%
    09:00 +20°C° 0 mm 1 mps 590 mmHg 67%
    10:00 +21°C° 0 mm 1 mps 591 mmHg 62%
    11:00 +21°C° 0 mm 2 mps 591 mmHg 58%
    12:00 +21°C° 0.3 mm 2 mps 590 mmHg 61%
    13:00 +20°C° 0.3 mm 2 mps 589 mmHg 65%
    14:00 +20°C° 0.3 mm 2 mps 589 mmHg 69%
    15:00 +18°C° 0.2 mm 2 mps 588 mmHg 77%
    16:00 +18°C° 0.2 mm 1 mps 588 mmHg 85%
    17:00 +15°C° 0.2 mm 1 mps 587 mmHg 93%
    18:00 +15°C° 0 mm 1 mps 588 mmHg 91%
    19:00 +15°C° 0 mm 1 mps 588 mmHg 88%
    20:00 +15°C° 0 mm 1 mps 588 mmHg 86%
    21:00 +15°C° 0 mm 1 mps 588 mmHg 84%
    22:00 +13°C° 0 mm 0 mps 588 mmHg 83%
    23:00 +13°C° 0 mm 0 mps 588 mmHg 81%
    Show more